Weather reports worldwide

Advertisment
Bilbao/Aeropuerto, Spain (8025): temperature & dewpoint: 12.01.2020 12:00:00 - 18.01.2020 12:00:00 (CET)Bilbao/Aeropuerto, Spain (8025): wind speed & gusts: 12.01.2020 12:00:00 - 18.01.2020 12:00:00 (CET)Bilbao/Aeropuerto, Spain (8025): wind direction: 12.01.2020 12:00:00 - 18.01.2020 12:00:00 (CET)Bilbao/Aeropuerto, Spain (8025): reduced air pressure: 12.01.2020 12:00:00 - 18.01.2020 12:00:00 (CET)Bilbao/Aeropuerto, Spain (8025): visibility: 12.01.2020 12:00:00 - 18.01.2020 12:00:00 (CET)
Date & Time tt [°C] td [°C] ff [km/h] ff [kn] fx [km/h] fx [kn] dd ppp [hPa] vv [km]
18.01.2020 12:00:00 13,8 2,8 18 10 - - SSE 1022,3 -
18.01.2020 11:00:00 13,2 2,7 22 12 - - SSE 1023,5 -
18.01.2020 10:00:00 12,3 2,4 21 11 - - SE 1024,3 30
18.01.2020 09:00:00 10,6 2,5 16 9 - - SE 1025,3 -
18.01.2020 08:00:00 9,9 2,5 16 9 - - SE 1026,5 -
18.01.2020 07:00:00 8,1 3,5 13 7 - - ESE 1027,3 20
18.01.2020 06:00:00 8,0 3,6 16 9 - - E 1027,7 -
18.01.2020 05:00:00 7,4 4,2 16 9 - - E 1028,6 -
18.01.2020 04:00:00 6,4 4,4 9 5 - - SE 1029,9 -
18.01.2020 03:00:00 6,4 4,6 9 5 - - SE 1030,3 -
18.01.2020 02:00:00 6,1 4,4 4 2 - - SE 1031,5 -
18.01.2020 01:00:00 6,2 4,5 4 2 - - SE 1032,2 15
18.01.2020 00:00:00 6,0 4,6 8 4 - - E 1032,6 -
17.01.2020 23:00:00 7,0 4,8 5 3 - - ESE 1033,0 -
17.01.2020 22:00:00 7,1 4,9 9 5 - - E 1033,5 15
17.01.2020 21:00:00 7,6 4,9 11 6 - - E 1033,5 -
17.01.2020 20:00:00 8,0 4,6 8 4 - - ESE 1033,5 -
17.01.2020 19:00:00 9,6 4,2 5 3 - - W 1033,0 15
17.01.2020 18:00:00 10,2 4,8 18 10 - - WNW 1032,4 -
17.01.2020 17:00:00 11,0 5,7 18 10 - - WNW 1031,9 -
17.01.2020 16:00:00 11,4 6,1 22 12 - - NW 1030,9 40
17.01.2020 15:00:00 12,9 6,2 24 13 - - WNW 1030,6 -
17.01.2020 14:00:00 11,5 6,5 8 4 - - W 1030,4 -
17.01.2020 13:00:00 10,8 6,7 15 8 - - WNW 1030,4 20
17.01.2020 12:00:00 11,8 6,9 13 7 - - W 1030,2 -
17.01.2020 11:00:00 10,2 6,9 9 5 - - WSW 1029,4 -
17.01.2020 10:00:00 9,9 6,7 11 6 - - WSW 1028,7 12
17.01.2020 09:00:00 9,7 6,6 4 2 - - W 1027,5 -
17.01.2020 08:00:00 9,9 8,0 8 4 - - WSW 1026,7 -
17.01.2020 07:00:00 11,1 7,8 29 16 - - WNW 1025,1 15
17.01.2020 06:00:00 11,0 8,4 4 2 - - ENE 1023,1 -
17.01.2020 05:00:00 10,3 7,5 8 4 - - NE 1022,9 -
17.01.2020 04:00:00 13,1 8,9 8 4 - - WSW 1022,8 -
17.01.2020 03:00:00 15,6 4,6 18 10 - - SW 1022,3 -
17.01.2020 02:00:00 15,8 4,2 15 8 - - SSW 1021,0 -
17.01.2020 01:00:00 16,0 4,7 16 9 - - S 1020,0 -
17.01.2020 00:00:00 16,5 4,6 13 7 - - SW 1020,8 -
16.01.2020 23:00:00 17,4 2,2 16 9 - - SSW 1020,2 -
16.01.2020 22:00:00 17,9 1,4 18 10 - - W 1020,4 15
16.01.2020 21:00:00 18,6 2,4 13 7 - - S 1019,5 -
16.01.2020 20:00:00 19,5 1,0 18 10 78 42 S 1018,6 -
16.01.2020 19:00:00 19,5 0,7 22 12 - - S 1018,5 15
16.01.2020 18:00:00 18,4 4,2 8 4 - - SE 1018,1 -
16.01.2020 17:00:00 18,4 4,7 18 10 - - S 1018,3 -
16.01.2020 16:00:00 18,3 6,0 28 15 - - SSE 1018,1 40
16.01.2020 15:00:00 17,7 6,6 18 10 - - S 1018,8 -
16.01.2020 14:00:00 18,1 6,9 18 10 - - SSE 1019,5 -
16.01.2020 13:00:00 18,3 6,8 21 11 - - SSE 1020,4 40
16.01.2020 12:00:00 17,1 6,6 24 13 - - SSE 1021,5 -
16.01.2020 11:00:00 17,0 6,7 26 14 - - SSE 1021,4 -
16.01.2020 10:00:00 16,1 6,5 22 12 - - SE 1021,0 40
16.01.2020 09:00:00 15,1 6,1 21 11 - - SE 1021,1 -
16.01.2020 08:00:00 15,3 6,0 21 11 - - SSE 1021,0 -
16.01.2020 07:00:00 15,6 6,6 29 16 - - SE 1020,3 30
16.01.2020 06:00:00 13,2 6,6 16 9 - - ESE 1020,6 -
16.01.2020 05:00:00 15,4 7,2 16 9 - - SSE 1020,9 -
16.01.2020 04:00:00 15,5 7,3 22 12 - - SSE 1021,1 -
16.01.2020 03:00:00 15,4 6,9 13 7 - - S 1021,2 -
16.01.2020 02:00:00 15,2 6,5 22 12 - - SSE 1021,3 -
16.01.2020 01:00:00 15,2 5,9 11 6 - - S 1021,7 -
16.01.2020 00:00:00 14,9 5,9 15 8 - - S 1022,2 -
15.01.2020 23:00:00 14,5 5,8 18 10 - - SSE 1022,3 -
15.01.2020 22:00:00 9,9 7,5 21 11 - - E 1022,8 15
15.01.2020 21:00:00 8,4 7,5 13 7 - - E 1023,4 -
15.01.2020 20:00:00 8,9 7,2 5 3 - - ESE 1024,1 -
15.01.2020 19:00:00 11,0 8,6 0 0 - - N 1023,5 15
15.01.2020 18:00:00 12,8 9,2 8 4 - - NNE 1022,9 -
15.01.2020 17:00:00 14,0 9,7 8 4 - - W 1022,1 -
15.01.2020 16:00:00 15,3 10,1 18 10 - - WNW 1020,9 40
15.01.2020 15:00:00 17,6 6,1 15 8 - - SW 1019,9 -
15.01.2020 14:00:00 17,9 6,0 21 11 - - SW 1019,7 -
15.01.2020 13:00:00 16,8 5,8 16 9 - - SW 1019,0 30
15.01.2020 12:00:00 16,1 5,5 9 5 - - WSW 1020,3 -
15.01.2020 11:00:00 16,5 5,1 22 12 - - SSW 1018,3 -
15.01.2020 10:00:00 16,5 4,8 24 13 - - SSW 1016,2 30
15.01.2020 09:00:00 16,0 4,2 11 6 - - S 1015,7 -
15.01.2020 08:00:00 16,0 4,2 26 14 - - SSW 1015,0 -
15.01.2020 07:00:00 15,5 5,1 13 7 - - ESE 1014,6 15
15.01.2020 06:00:00 16,0 4,7 15 8 - - SSE 1013,7 -
15.01.2020 05:00:00 15,9 4,9 34 18 80 43 S 1013,5 -
15.01.2020 04:00:00 16,0 5,0 28 15 - - SSW 1013,5 -
15.01.2020 03:00:00 15,8 5,1 26 14 - - S 1014,1 -
15.01.2020 02:00:00 15,7 4,7 22 12 - - S 1014,3 -
15.01.2020 01:00:00 15,7 4,3 16 9 - - S 1015,3 -
15.01.2020 00:00:00 15,6 3,7 16 9 - - SW 1015,7 -
14.01.2020 23:00:00 15,7 2,8 15 8 - - S 1015,2 -
14.01.2020 22:00:00 15,9 2,8 16 9 - - SSW 1015,2 40
14.01.2020 21:00:00 16,0 2,2 24 13 - - SSW 1015,1 -
14.01.2020 20:00:00 15,8 1,9 18 10 - - SSW 1015,1 -
14.01.2020 19:00:00 15,9 1,9 18 10 - - SSW 1014,9 40
14.01.2020 18:00:00 16,2 2,2 29 16 - - SSW 1014,6 -
14.01.2020 17:00:00 15,9 2,4 22 12 - - SSW 1014,7 -
14.01.2020 16:00:00 16,7 2,5 26 14 - - S 1014,6 40
14.01.2020 15:00:00 16,7 2,7 15 8 - - SSW 1015,0 -
14.01.2020 14:00:00 16,5 2,6 22 12 - - S 1015,1 -
14.01.2020 13:00:00 15,1 2,8 18 10 - - S 1015,7 40
14.01.2020 12:00:00 14,0 3,6 18 10 - - S 1016,6 -
14.01.2020 11:00:00 14,2 3,9 15 8 - - S 1016,5 -
14.01.2020 10:00:00 12,6 3,3 15 8 - - S 1016,2 40
14.01.2020 09:00:00 12,5 3,2 9 5 - - S 1015,8 -
14.01.2020 08:00:00 12,1 3,1 9 5 - - ESE 1015,8 -
14.01.2020 07:00:00 12,3 3,0 13 7 - - E 1015,3 15
14.01.2020 06:00:00 12,4 2,8 9 5 - - SSE 1015,3 -
14.01.2020 05:00:00 12,3 2,6 15 8 - - S 1015,6 -
14.01.2020 04:00:00 12,2 2,1 11 6 - - S 1016,2 -
14.01.2020 03:00:00 11,5 1,4 5 3 - - E 1016,9 -
14.01.2020 02:00:00 12,5 1,2 34 18 - - SSW 1016,7 -
14.01.2020 01:00:00 12,6 0,0 16 9 - - SW 1016,9 -
14.01.2020 00:00:00 12,6 -0,3 28 15 - - SSW 1017,3 -
13.01.2020 23:00:00 12,1 -1,8 26 14 - - SSW 1018,1 -
13.01.2020 22:00:00 12,5 -4,2 16 9 - - SSW 1017,9 15
13.01.2020 21:00:00 11,6 -5,1 11 6 - - WSW 1017,7 -
13.01.2020 20:00:00 12,7 -4,9 9 5 - - S 1017,2 -
13.01.2020 19:00:00 13,3 -4,4 8 4 - - SSW 1017,3 30
13.01.2020 18:00:00 13,2 -3,9 11 6 - - SSE 1017,5 -
13.01.2020 17:00:00 14,7 -4,5 5 3 - - SSE 1017,7 -
13.01.2020 16:00:00 16,3 -3,7 8 4 - - S 1017,8 40
13.01.2020 15:00:00 15,2 -1,2 8 4 - - WSW 1018,6 -
13.01.2020 14:00:00 14,6 -0,8 13 7 - - S 1019,6 -
13.01.2020 13:00:00 13,2 0,0 5 3 - - S 1020,6 30
13.01.2020 12:00:00 11,4 3,2 4 2 - - NNW 1022,2 -
13.01.2020 11:00:00 8,7 3,5 0 0 - - N 1022,7 -
13.01.2020 10:00:00 6,3 2,2 4 2 - - ESE 1022,8 30
13.01.2020 09:00:00 4,2 1,9 5 3 - - E 1022,9 -
13.01.2020 08:00:00 5,0 2,4 5 3 - - E 1023,6 -
13.01.2020 07:00:00 2,7 1,4 8 4 - - SE 1023,9 20
13.01.2020 06:00:00 3,9 2,2 2 1 - - NW 1024,1 -
13.01.2020 05:00:00 3,6 2,4 4 2 - - E 1025,2 -
13.01.2020 04:00:00 3,3 2,1 4 2 - - E 1026,2 -
13.01.2020 03:00:00 3,4 2,0 8 4 - - ENE 1026,9 -
13.01.2020 02:00:00 3,5 2,2 8 4 - - ENE 1027,5 -
13.01.2020 01:00:00 3,9 2,4 5 3 - - ENE 1028,5 -
13.01.2020 00:00:00 4,1 2,8 5 3 - - ENE 1028,9 -
12.01.2020 23:00:00 3,9 2,7 11 6 - - E 1029,2 -
12.01.2020 22:00:00 4,5 2,8 9 5 - - E 1029,7 15
12.01.2020 21:00:00 5,3 3,1 9 5 - - E 1030,1 -
12.01.2020 20:00:00 6,5 3,6 8 4 - - E 1030,5 -
12.01.2020 19:00:00 7,7 4,3 5 3 - - E 1030,2 15
12.01.2020 18:00:00 9,2 3,4 8 4 - - ESE 1030,0 -
12.01.2020 17:00:00 13,5 4,7 5 3 - - ESE 1029,9 -
12.01.2020 16:00:00 14,1 3,2 2 1 - - ENE 1030,0 40
12.01.2020 15:00:00 13,8 5,0 5 3 - - SE 1030,4 -
12.01.2020 14:00:00 12,5 4,6 5 3 - - E 1031,0 -
12.01.2020 13:00:00 10,5 3,9 5 3 - - E 1032,2 30
12.01.2020 12:00:00 8,0 3,6 9 5 - - ESE 1033,2 -

tt = temperature
td = dewpoint
ff = wind speed
fx = gusts
dd = wind direction
ppp = reduced air pressure
vv = visibility

Next stations